Weather History for Poplar Bluff, MO

Change the Weather History Date:

Wednesday, September 11, 2013

  Actual Average Record
Temperature  
Mean Temperature 82 °F -  
Max Temperature 93 °F 83 °F 100 °F (1927)
Min Temperature 71 °F 60 °F 40 °F (1940)
Cooling Degree Days 17    
Growing Degree Days 32 (Base 50)    
Moisture  
Dew Point 71 °F    
Average Humidity 79    
Maximum Humidity 94    
Minimum Humidity 50    
Precipitation  
Precipitation 0.00 in - - ()
Sea Level Pressure  
Sea Level Pressure 30.10 in    
Wind  
Wind Speed 1 mph (ESE)    
Max Wind Speed 9 mph    
Max Gust Speed -    
Visibility 6 miles    
Events Thunderstorm    
Averages and records for this station are not official NWS values.
T = Trace of Precipitation, MM = Missing Value Source: NWS Daily Summary

Daily Weather History Graph

Daily Weather History Graph

Search for Another Location

Airport:

Trip Planner

Search our weather history database for the weather conditions in past years. The results will help you decide how hot, cold, wet, or windy it might be!

Date:

Astronomy

Sep. 11, 2013 Rise Set
Actual Time 6:40 AM CDT 7:14 PM CDT
Civil Twilight 6:14 AM CDT 7:40 PM CDT
Nautical Twilight 5:43 AM CDT 8:11 PM CDT
Astronomical Twilight 5:12 AM CDT 8:42 PM CDT
Moon 12:59 PM CDT (9/11) 11:20 PM CDT (9/11)
Length of Visible Light 13h 25m
Length of Day
12h 33m
Waxing Crescent, 39% of the Moon is Illuminated
Sep 11
Waxing Crescent
Sep 12
First Quarter
Sep 19
Full
Sep 26
Last Quarter
Oct 4
New

Hourly Weather History & Observations

Time (CDT) Temp. Heat Index Dew Point Humidity Pressure Visibility Wind Dir Wind Speed Gust Speed Precip Events Conditions
12:53 AM 73.9 °F - 70.0 °F 87% 30.09 in 7.0 mi Calm Calm - N/A   Clear
1:53 AM 73.0 °F - 69.1 °F 87% 30.10 in 5.0 mi Calm Calm - N/A   Clear
2:53 AM 73.0 °F - 69.1 °F 87% 30.09 in 5.0 mi Calm Calm - N/A   Clear
3:53 AM 72.0 °F - 69.1 °F 91% 30.10 in 3.0 mi Calm Calm - N/A   Clear
4:38 AM 71.6 °F - 68.0 °F 88% 30.12 in 2.0 mi Calm Calm - N/A   Clear
4:53 AM 72.0 °F - 69.1 °F 91% 30.10 in 2.0 mi Calm Calm - N/A   Clear
5:05 AM 71.6 °F - 69.8 °F 94% 30.12 in 4.0 mi Calm Calm - N/A   Clear
5:44 AM 71.6 °F - 68.0 °F 88% 30.13 in 1.8 mi Calm Calm - N/A   Clear
5:53 AM 71.1 °F - 69.1 °F 93% 30.12 in 1.2 mi Calm Calm - N/A   Clear
6:01 AM 71.6 °F - 68.0 °F 88% 30.13 in 3.0 mi Calm Calm - N/A   Clear
6:13 AM 71.6 °F - 68.0 °F 88% 30.14 in 2.5 mi Calm Calm - N/A   Clear
6:20 AM 71.6 °F - 68.0 °F 88% 30.14 in 3.0 mi Calm Calm - N/A   Clear
6:48 AM 71.6 °F - 68.0 °F 88% 30.15 in 2.0 mi NNE 3.5 mph - N/A   Clear
6:53 AM 71.1 °F - 68.0 °F 90% 30.14 in 2.0 mi Calm Calm - N/A   Clear
7:43 AM 73.4 °F - 69.8 °F 88% 30.15 in 3.0 mi Calm Calm - N/A   Clear
7:53 AM 73.9 °F - 70.0 °F 87% 30.14 in 3.0 mi Calm Calm - N/A   Clear
8:02 AM 73.4 °F - 69.8 °F 88% 30.15 in 2.5 mi Calm Calm - N/A   Clear
8:10 AM 73.4 °F - 69.8 °F 88% 30.15 in 4.0 mi Calm Calm - N/A   Clear
8:53 AM 77.0 °F - 72.0 °F 84% 30.14 in 5.0 mi Calm Calm - N/A   Haze
9:53 AM 82.9 °F 88.0 °F 72.0 °F 69% 30.13 in 8.0 mi Calm Calm - N/A   Clear
10:53 AM 84.9 °F 91.4 °F 73.0 °F 67% 30.14 in 9.0 mi Calm Calm - N/A   Clear
11:53 AM 88.0 °F 95.6 °F 73.0 °F 61% 30.12 in 9.0 mi Variable 3.5 mph - N/A   Clear
12:53 PM 90.0 °F 99.0 °F 73.9 °F 59% 30.11 in 9.0 mi SW 3.5 mph - N/A   Clear
1:53 PM 93.0 °F 101.9 °F 73.0 °F 52% 30.09 in 10.0 mi Calm Calm - N/A   Clear
2:53 PM 93.0 °F 100.7 °F 72.0 °F 50% 30.06 in 9.0 mi SSW 4.6 mph - N/A   Clear
3:53 PM 91.9 °F 100.7 °F 73.0 °F 54% 30.05 in 9.0 mi SW 5.8 mph - N/A   Clear
4:28 PM 89.6 °F 99.8 °F 75.2 °F 62% 30.07 in 8.0 mi East 6.9 mph - N/A Thunderstorm Thunderstorm
4:49 PM 87.8 °F 92.6 °F 69.8 °F 55% 30.06 in 10.0 mi ENE 9.2 mph - N/A   Partly Cloudy
4:53 PM 84.0 °F 87.0 °F 68.0 °F 58% 30.05 in 10.0 mi East 5.8 mph - N/A   Partly Cloudy
5:53 PM 86.0 °F 93.8 °F 73.9 °F 67% 30.05 in 10.0 mi Calm Calm - N/A   Clear
6:27 PM 82.4 °F 89.5 °F 75.2 °F 79% 30.05 in 7.0 mi ESE 4.6 mph - N/A Thunderstorm Clear
6:53 PM 82.9 °F 88.0 °F 72.0 °F 69% 30.05 in 9.0 mi SE 6.9 mph - N/A   Clear
7:53 PM 80.1 °F 83.6 °F 71.1 °F 74% 30.06 in 10.0 mi Calm Calm - N/A   Clear
8:53 PM 78.1 °F - 72.0 °F 81% 30.07 in 9.0 mi Calm Calm - N/A   Clear
9:53 PM 75.9 °F - 72.0 °F 87% 30.06 in 8.0 mi Calm Calm - N/A   Clear
10:53 PM 75.0 °F - 71.1 °F 87% 30.06 in 7.0 mi Calm Calm - N/A   Clear
11:53 PM 73.9 °F - 71.1 °F 91% 30.05 in 7.0 mi Calm Calm - N/A   Clear